TimeCST,TemperatureF,Dew PointF,Humidity,Sea Level PressureIn,VisibilityMPH,Wind Direction,Wind SpeedMPH,Gust SpeedMPH,PrecipitationIn,Events,Conditions,WindDirDegrees,DateUTC
12:13 AM,6.8,1.4,79,29.96,10.0,Calm,Calm,-,N/A,,Clear,0,2012-12-29 06:13:00
12:33 AM,6.8,3.2,85,29.97,10.0,Calm,Calm,-,N/A,,Clear,0,2012-12-29 06:33:00
12:53 AM,5.0,1.4,85,29.97,10.0,Calm,Calm,-,N/A,,Clear,0,2012-12-29 06:53:00
1:13 AM,3.2,-0.4,85,29.97,10.0,Calm,Calm,-,N/A,,Clear,0,2012-12-29 07:13:00
1:33 AM,3.2,-0.4,85,29.96,10.0,Calm,Calm,-,N/A,,Scattered Clouds,0,2012-12-29 07:33:00
1:53 AM,3.2,-0.4,85,29.96,10.0,Calm,Calm,-,N/A,,Mostly Cloudy,0,2012-12-29 07:53:00
2:13 AM,3.2,-0.4,85,29.96,7.0,Calm,Calm,-,N/A,Snow,Light Snow,0,2012-12-29 08:13:00
2:33 AM,1.4,-2.2,85,29.96,7.0,Calm,Calm,-,N/A,,Scattered Clouds,0,2012-12-29 08:33:00
2:53 AM,1.4,-2.2,85,29.96,10.0,Calm,Calm,-,N/A,,Mostly Cloudy,0,2012-12-29 08:53:00
3:13 AM,3.2,-2.2,78,29.95,10.0,Calm,Calm,-,N/A,,Overcast,0,2012-12-29 09:13:00
3:33 AM,5.0,1.4,85,29.95,10.0,Calm,Calm,-,N/A,,Overcast,0,2012-12-29 09:33:00
3:53 AM,6.8,3.2,85,29.95,7.0,Calm,Calm,-,N/A,Snow,Light Snow,0,2012-12-29 09:53:00
4:13 AM,8.6,3.2,79,29.94,10.0,Calm,Calm,-,N/A,,Overcast,0,2012-12-29 10:13:00
4:33 AM,6.8,3.2,85,29.94,7.0,Calm,Calm,-,N/A,Snow,Light Snow,0,2012-12-29 10:33:00
4:53 AM,8.6,5.0,85,29.94,7.0,Calm,Calm,-,N/A,Snow,Light Snow,0,2012-12-29 10:53:00
5:13 AM,8.6,6.8,92,29.93,7.0,Calm,Calm,-,N/A,Snow,Light Snow,0,2012-12-29 11:13:00
5:33 AM,8.6,6.8,92,29.93,7.0,Calm,Calm,-,N/A,Snow,Light Snow,0,2012-12-29 11:33:00
5:53 AM,10.4,6.8,85,29.93,4.0,Calm,Calm,-,N/A,Snow,Light Snow,0,2012-12-29 11:53:00
6:13 AM,10.4,8.6,92,29.93,7.0,Calm,Calm,-,N/A,Snow,Light Snow,0,2012-12-29 12:13:00
6:33 AM,12.2,8.6,85,29.93,10.0,Calm,Calm,-,N/A,Snow,Light Snow,0,2012-12-29 12:33:00
6:53 AM,12.2,8.6,85,29.93,5.0,Calm,Calm,-,N/A,Snow,Light Snow,0,2012-12-29 12:53:00
7:13 AM,12.2,10.4,92,29.94,7.0,Calm,Calm,-,N/A,Snow,Light Snow,0,2012-12-29 13:13:00
7:33 AM,14.0,10.4,86,29.94,4.0,Calm,Calm,-,N/A,Snow,Light Snow,0,2012-12-29 13:33:00
7:53 AM,15.8,10.4,79,29.94,5.0,WSW,3.5,-,N/A,Snow,Light Snow,240,2012-12-29 13:53:00
8:13 AM,15.8,12.2,86,29.94,7.0,WSW,4.6,-,N/A,Snow,Light Snow,240,2012-12-29 14:13:00
8:33 AM,14.0,10.4,86,29.94,4.0,SW,4.6,-,N/A,Snow,Light Snow,230,2012-12-29 14:33:00
8:53 AM,14.0,10.4,86,29.95,5.0,WSW,3.5,-,N/A,Snow,Light Snow,250,2012-12-29 14:53:00
9:13 AM,14.0,10.4,86,29.95,4.0,SW,5.8,-,N/A,Snow,Light Snow,230,2012-12-29 15:13:00
9:33 AM,15.8,10.4,79,29.96,3.0,WSW,3.5,-,N/A,Snow,Light Snow,240,2012-12-29 15:33:00
9:53 AM,14.0,10.4,86,29.96,3.0,WSW,6.9,-,N/A,Snow,Light Snow,240,2012-12-29 15:53:00
10:13 AM,14.0,10.4,86,29.96,4.0,WSW,6.9,-,N/A,Snow,Light Snow,240,2012-12-29 16:13:00
10:33 AM,15.8,10.4,79,29.97,4.0,WSW,6.9,-,N/A,Snow,Light Snow,250,2012-12-29 16:33:00
10:53 AM,15.8,10.4,79,29.96,2.5,SW,6.9,-,N/A,Snow,Light Snow,230,2012-12-29 16:53:00
11:13 AM,15.8,10.4,79,29.96,3.0,WSW,5.8,-,N/A,Snow,Light Snow,250,2012-12-29 17:13:00
11:33 AM,15.8,8.6,73,29.95,2.5,WSW,5.8,-,N/A,Snow,Light Snow,240,2012-12-29 17:33:00
11:53 AM,15.8,8.6,73,29.95,2.5,Calm,Calm,-,N/A,Snow,Light Snow,0,2012-12-29 17:53:00
12:13 PM,15.8,10.4,79,29.95,2.0,West,4.6,-,N/A,Snow,Light Snow,260,2012-12-29 18:13:00
12:33 PM,15.8,8.6,73,29.95,4.0,WSW,4.6,-,N/A,Snow,Light Snow,250,2012-12-29 18:33:00
12:53 PM,15.8,8.6,73,29.94,2.5,Calm,Calm,-,N/A,Snow,Light Snow,0,2012-12-29 18:53:00
1:13 PM,15.8,8.6,73,29.94,1.5,WNW,4.6,-,N/A,Snow,Light Snow,300,2012-12-29 19:13:00
1:33 PM,15.8,8.6,73,29.94,10.0,Calm,Calm,-,N/A,Snow,Light Snow,0,2012-12-29 19:33:00
1:53 PM,14.0,8.6,79,29.94,5.0,WNW,4.6,-,N/A,Snow,Light Snow,300,2012-12-29 19:53:00
2:13 PM,14.0,8.6,79,29.94,5.0,WNW,3.5,-,N/A,Snow,Light Snow,300,2012-12-29 20:13:00
2:33 PM,14.0,8.6,79,29.95,4.0,NW,4.6,-,N/A,Snow,Light Snow,310,2012-12-29 20:33:00
2:53 PM,12.2,6.8,79,29.95,7.0,West,3.5,-,N/A,Snow,Light Snow,280,2012-12-29 20:53:00
3:13 PM,12.2,6.8,79,29.96,10.0,West,3.5,-,N/A,,Overcast,270,2012-12-29 21:13:00
3:33 PM,12.2,6.8,79,29.97,5.0,West,3.5,-,N/A,Snow,Light Snow,280,2012-12-29 21:33:00
3:53 PM,12.2,6.8,79,29.97,7.0,Calm,Calm,-,N/A,Snow,Light Snow,0,2012-12-29 21:53:00
4:13 PM,10.4,6.8,85,29.98,10.0,Calm,Calm,-,N/A,,Mostly Cloudy,0,2012-12-29 22:13:00
4:33 PM,10.4,5.0,79,29.99,7.0,Calm,Calm,-,N/A,Snow,Light Snow,0,2012-12-29 22:33:00
4:53 PM,8.6,3.2,79,30.00,7.0,Calm,Calm,-,N/A,,Clear,0,2012-12-29 22:53:00
5:13 PM,6.8,1.4,79,30.00,10.0,Calm,Calm,-,N/A,,Clear,0,2012-12-29 23:13:00
5:33 PM,5.0,1.4,85,30.00,10.0,Calm,Calm,-,N/A,,Clear,0,2012-12-29 23:33:00
5:53 PM,5.0,-0.4,78,30.00,10.0,Calm,Calm,-,N/A,,Clear,0,2012-12-29 23:53:00
6:13 PM,1.4,-2.2,85,30.01,10.0,Calm,Calm,-,N/A,,Clear,0,2012-12-30 00:13:00
6:33 PM,-0.4,-4.0,85,30.01,10.0,Calm,Calm,-,N/A,,Clear,0,2012-12-30 00:33:00
6:53 PM,-0.4,-4.0,85,30.01,10.0,Calm,Calm,-,N/A,,Clear,0,2012-12-30 00:53:00
7:13 PM,-2.2,-7.6,78,30.01,10.0,Calm,Calm,-,N/A,,Clear,0,2012-12-30 01:13:00
7:33 PM,-2.2,-7.6,78,30.02,10.0,Calm,Calm,-,N/A,,Clear,0,2012-12-30 01:33:00
7:53 PM,-2.2,-7.6,78,30.02,10.0,Calm,Calm,-,N/A,,Clear,0,2012-12-30 01:53:00
8:13 PM,-4.0,-9.4,78,30.02,10.0,Calm,Calm,-,N/A,,Clear,0,2012-12-30 02:13:00
8:53 PM,-5.8,-9.4,84,30.02,10.0,Calm,Calm,-,N/A,,Clear,0,2012-12-30 02:53:00
9:13 PM,-5.8,-9.4,84,30.03,10.0,Calm,Calm,-,N/A,,Clear,0,2012-12-30 03:13:00
9:33 PM,-5.8,-11.2,77,30.02,10.0,Calm,Calm,-,N/A,,Clear,0,2012-12-30 03:33:00
9:53 PM,-5.8,-11.2,77,30.02,10.0,Calm,Calm,-,N/A,,Clear,0,2012-12-30 03:53:00
10:13 PM,-5.8,-11.2,77,30.02,10.0,Calm,Calm,-,N/A,,Clear,0,2012-12-30 04:13:00
10:33 PM,-7.6,-13.0,77,30.03,10.0,Calm,Calm,-,N/A,,Clear,0,2012-12-30 04:33:00
10:53 PM,-7.6,-13.0,77,30.03,7.0,Calm,Calm,-,N/A,,Clear,0,2012-12-30 04:53:00
11:13 PM,-7.6,-13.0,77,30.03,10.0,Calm,Calm,-,N/A,,Clear,0,2012-12-30 05:13:00
11:33 PM,-9.4,-14.8,77,30.04,10.0,Calm,Calm,-,N/A,,Clear,0,2012-12-30 05:33:00
11:53 PM,-9.4,-14.8,77,30.04,10.0,Calm,Calm,-,N/A,,Clear,0,2012-12-30 05:53:00